sat.trackr.live / text

‹ back to catalog

STARLINK-30068

NORAD 56698 · 2023-067L

PAYLOAD ACTIVE UNKNOWN

§ Identity

Operator
Country
US
Launch date
2023-05-19
Launch site
AFETR
Launch vehicle
Mass (kg)
RCS (m²)

Purposes: comms

External: N2YO · Heavens-Above · Gunter

§ Orbital elements

Epoch: 2026-09-20T15:20:16.388448Z

Period
94.27 min
Inclination
43.0011°
Eccentricity
0.0000990
Mean motion
15.27577511 rev/d
Perigee alt
482.4 km
Apogee alt
483.7 km
Semi-major
6,861.2 km
B*
6.6136e-6
RAAN
238.9190°
Arg perigee
261.2464°
Mean anomaly
98.8276°
Rev number
18,538

§ Raw data

STARLINK-300681 56698U 23067L   26263.63907857 -.00000080  00000+0  66136-5 0  99912 56698  43.0011 238.9190 0000990 261.2464  98.8276 15.27577511185386

JSON: /api/v1/satellites/56698 · /tle

For live sub-satellite position, see the globe view (requires WebGL).

§ Visibility from observer

Set your observer location to see the next 7 days of passes ≥ 10°. The values pass through the URL so the page stays shareable.

No JS? Fill the form by hand. The geolocation button needs JavaScript.